SAS7371 ENZV-LGRP

Flight info

Callsign SAS7371
Flight time N/A
Altitude 33000
Route PEVEB DCT SONAL DCT BINKA DCT REGLI/N0449F350 DCT LITKU DCT OVDOT DCT NIKTI DCT MES UN139 LURUS UL995 CODIC
Aircraft A321/M-SDE3FGHIRWY/LB1

Departure

Time 2026-04-27 19:00
Airport Stavanger Airport, Sola (ENZV)

Arrival

Time N/A
Airport Rhodes International Airport "Diagoras" (LGRP)
Time Latitude Longitude Altitude Speed Heading
2026-04-27 18:32 58.88058 5.62909 27 ft 0 kts 341°
2026-04-27 18:50 58.88055 5.62912 56 ft 3 kts 341°
2026-04-27 18:50 58.88031 5.62926 28 ft 4 kts 344°
2026-04-27 18:50 58.88006 5.62932 30 ft 4 kts 18°
2026-04-27 18:51 58.87989 5.62904 26 ft 4 kts 76°
2026-04-27 18:51 58.87987 5.62854 30 ft 4 kts 99°
2026-04-27 18:51 58.87988 5.62843 30 ft 1 kts 101°
2026-04-27 18:56 58.87987 5.62859 29 ft 5 kts 97°
2026-04-27 18:56 58.87983 5.62997 27 ft 12 kts 93°
2026-04-27 18:56 58.87971 5.63162 28 ft 12 kts 99°
2026-04-27 18:56 58.87937 5.63292 29 ft 9 kts 162°
2026-04-27 18:57 58.87872 5.63296 31 ft 10 kts 183°
2026-04-27 18:57 58.87769 5.63292 31 ft 20 kts 179°
2026-04-27 18:57 58.87606 5.63299 31 ft 25 kts 179°
2026-04-27 18:57 58.87433 5.63304 30 ft 25 kts 182°
2026-04-27 18:58 58.87260 5.63302 31 ft 25 kts 176°
2026-04-27 18:58 58.87153 5.63316 32 ft 20 kts 178°
2026-04-27 18:58 58.86997 5.63393 32 ft 18 kts 146°
2026-04-27 18:58 58.86955 5.63535 34 ft 10 kts 99°
2026-04-27 18:59 58.86950 5.63649 36 ft 7 kts 93°
2026-04-27 18:59 58.86958 5.63741 37 ft 7 kts 68°
2026-04-27 18:59 58.87023 5.63796 36 ft 17 kts
2026-04-27 18:59 58.87266 5.63789 34 ft 66 kts 359°
2026-04-27 19:00 58.87961 5.63773 33 ft 132 kts 359°
2026-04-27 19:00 58.89060 5.63778 188 ft 170 kts 359°
2026-04-27 19:00 58.90194 5.63811 1066 ft 160 kts
2026-04-27 19:00 58.91311 5.63875 1880 ft 161 kts
2026-04-27 19:01 58.92450 5.63911 2555 ft 171 kts
2026-04-27 19:01 58.93715 5.63837 2968 ft 193 kts 359°
2026-04-27 19:01 58.95130 5.63739 3358 ft 212 kts 359°
2026-04-27 19:01 58.96638 5.63641 3889 ft 223 kts 360°
2026-04-27 19:02 58.98255 5.63551 4120 ft 239 kts 360°
2026-04-27 19:02 58.99940 5.63472 4529 ft 250 kts 359°
2026-04-27 19:02 59.01717 5.63527 5036 ft 259 kts 10°
2026-04-27 19:02 59.03393 5.64790 5633 ft 262 kts 36°
2026-04-27 19:03 59.04608 5.67389 6299 ft 264 kts 62°
2026-04-27 19:03 59.05085 5.70815 6945 ft 269 kts 88°
2026-04-27 19:03 59.04713 5.74278 7518 ft 275 kts 115°
2026-04-27 19:03 59.03988 5.76370 7923 ft 279 kts 129°
2026-04-27 19:04 59.02253 5.80136 8719 ft 284 kts 130°
2026-04-27 19:04 59.01367 5.82044 9117 ft 286 kts 130°
2026-04-27 19:04 58.99587 5.85888 9918 ft 291 kts 130°
2026-04-27 19:04 58.98677 5.87862 10320 ft 293 kts 130°
2026-04-27 19:05 58.97293 5.90867 10670 ft 306 kts 130°
2026-04-27 19:05 58.95841 5.94020 10813 ft 325 kts 130°
2026-04-27 19:05 58.94285 5.97384 10929 ft 342 kts 130°
2026-04-27 19:05 58.92656 6.00901 11063 ft 359 kts 130°
2026-04-27 19:06 58.90942 6.04593 11193 ft 374 kts 130°
2026-04-27 19:06 58.89180 6.08379 11383 ft 386 kts 130°
2026-04-27 19:06 58.87366 6.12272 11812 ft 390 kts 130°
2026-04-27 19:06 58.85549 6.16175 12304 ft 393 kts 130°
2026-04-27 19:07 58.83699 6.20145 12789 ft 395 kts 130°
2026-04-27 19:07 58.81869 6.24064 13287 ft 398 kts 130°
2026-04-27 19:07 58.80007 6.28041 13749 ft 400 kts 130°
2026-04-27 19:07 58.78142 6.32011 14227 ft 402 kts 130°
2026-04-27 19:08 58.76250 6.36033 14654 ft 404 kts 130°
2026-04-27 19:08 58.74347 6.40076 15067 ft 407 kts 130°
2026-04-27 19:08 58.72407 6.44042 15455 ft 411 kts 135°
2026-04-27 19:08 58.70215 6.47665 15858 ft 414 kts 138°
2026-04-27 19:09 58.68049 6.51172 16244 ft 417 kts 138°
2026-04-27 19:09 58.65802 6.54815 16632 ft 419 kts 138°
2026-04-27 19:09 58.63608 6.58372 17002 ft 422 kts 138°
2026-04-27 19:09 58.61305 6.62104 17387 ft 425 kts 138°
2026-04-27 19:10 58.59036 6.65777 17769 ft 428 kts 138°
2026-04-27 19:10 58.56748 6.69473 18166 ft 430 kts 138°
2026-04-27 19:10 58.54451 6.73171 18531 ft 433 kts 138°
2026-04-27 19:10 58.52938 6.75595 18764 ft 435 kts 138°
2026-04-27 19:11 58.49806 6.80611 19202 ft 438 kts 138°
2026-04-27 19:11 58.47526 6.84417 19546 ft 439 kts 135°
2026-04-27 19:11 58.45309 6.88486 19891 ft 440 kts 133°
2026-04-27 19:11 58.43142 6.92706 20233 ft 442 kts 132°
2026-04-27 19:12 58.41063 6.96840 20566 ft 444 kts 132°
2026-04-27 19:12 58.38911 7.01086 20908 ft 446 kts 132°
2026-04-27 19:12 58.36713 7.05335 21229 ft 448 kts 133°
2026-04-27 19:12 58.34505 7.09512 21565 ft 451 kts 133°
2026-04-27 19:13 58.32260 7.13699 21888 ft 452 kts 134°
2026-04-27 19:13 58.29992 7.17898 22216 ft 454 kts 134°
2026-04-27 19:13 58.27737 7.22062 22455 ft 457 kts 134°
2026-04-27 19:13 58.25458 7.26269 22878 ft 458 kts 134°
2026-04-27 19:14 58.23145 7.30538 23208 ft 459 kts 134°
2026-04-27 19:14 58.20841 7.34793 23545 ft 461 kts 134°
2026-04-27 19:14 58.18550 7.39024 23849 ft 463 kts 134°
2026-04-27 19:14 58.16257 7.43258 24106 ft 465 kts 134°
2026-04-27 19:15 58.13930 7.47556 24316 ft 468 kts 134°
2026-04-27 19:15 58.11594 7.51866 24560 ft 469 kts 134°